Regional Weather Roundup
Issued by NWS Goodland, KS

Home | Current Version | Previous Version | Graphics & Text | Print | Product List | Glossary On
Versions: 1 2 3 4 5 6 7 8 9 10 11 12 13 14 15 16 17 18 19 20 21 22 23 24 25 26 27 28 29 30 31 32 33 34 35 36 37 38 39 40 41 42 43 44 45 46 47 48 49 50
000
ASUS43 KGLD 181259
RWRGLD

GOODLAND FORECAST AREA HOURLY WEATHER ROUNDUP
NATIONAL WEATHER SERVICE GOODLAND KS
600 AM MST THU DEC 18 2014

...OFFICIAL OBSERVATIONS...

CITY           SKY/WX    TMP DP  RH WIND       PRES   REMARKS
GOODLAND KS    MOCLDY     8   5  87 W7        30.06R FOG
HILL CITY KS   CLOUDY    26  24  92 E3        30.14R
IMPERIAL NEB   CLOUDY    25  23  92 W5        30.06R
MCCOOK NEB     CLOUDY    23  21  92 CALM      30.11R
AKRON CO       PTCLDY    20  17  88 W13       30.00R WCI   7
BURLINGTON CO  PTCLDY    16  13  88 SW7       30.02R
LIMON CO       NOT AVBL
$$

...UNOFFICIAL OBSERVATIONS...

CITY           SKY/WX    TMP DP  RH WIND       PRES   REMARKS
GOVE KS          N/A     28  32 100 MISG        N/A
SHARON SPRINGS   N/A     26  25  96 CALM        N/A
TRIBUNE KS     CLOUDY    28  28 100 CALM      30.08R
KIT CARSON CO    N/A     19  17  91 MISG        N/A
$$



USA.gov is the U.S. government's official web portal to all federal, state and local government web resources and services.